owner,sensor,date,latitude,longitude,air_pressure(mBar),qcFlag 
WAVCIS,ioos:station:WAVCIS:CSI03:1,2017-03-01T00:00:00Z,29.4412,-92.0613,1009.26,11111222 
WAVCIS,ioos:station:WAVCIS:CSI03:1,2017-03-01T01:00:00Z,29.4412,-92.0613,1009.41,11111222 
WAVCIS,ioos:station:WAVCIS:CSI03:1,2017-03-01T02:00:00Z,29.4412,-92.0613,1009.71,11111222 
WAVCIS,ioos:station:WAVCIS:CSI03:1,2017-03-01T03:00:00Z,29.4412,-92.0613,1009.7,11111222 
WAVCIS,ioos:station:WAVCIS:CSI03:1,2017-03-01T04:00:00Z,29.4412,-92.0613,1010.24,11111222 
WAVCIS,ioos:station:WAVCIS:CSI03:1,2017-03-01T05:00:00Z,29.4412,-92.0613,1009.76,11111222 
WAVCIS,ioos:station:WAVCIS:CSI03:1,2017-03-01T06:00:00Z,29.4412,-92.0613,1009.48,11111222 
WAVCIS,ioos:station:WAVCIS:CSI03:1,2017-03-01T07:00:00Z,29.4412,-92.0613,1009.72,11111222 
WAVCIS,ioos:station:WAVCIS:CSI03:1,2017-03-01T08:00:00Z,29.4412,-92.0613,1009.27,11111222 
WAVCIS,ioos:station:WAVCIS:CSI03:1,2017-03-01T09:00:00Z,29.4412,-92.0613,1008.16,11111222 
WAVCIS,ioos:station:WAVCIS:CSI03:1,2017-03-01T10:00:00Z,29.4412,-92.0613,1008.76,11111222 
WAVCIS,ioos:station:WAVCIS:CSI03:1,2017-03-01T11:00:00Z,29.4412,-92.0613,1008.43,11111222 
WAVCIS,ioos:station:WAVCIS:CSI03:1,2017-03-01T12:00:00Z,29.4412,-92.0613,1008.91,11111222 
WAVCIS,ioos:station:WAVCIS:CSI03:1,2017-03-01T13:00:00Z,29.4412,-92.0613,1009.53,11111222 
WAVCIS,ioos:station:WAVCIS:CSI03:1,2017-03-01T14:00:00Z,29.4412,-92.0613,1009.99,11111222 
WAVCIS,ioos:station:WAVCIS:CSI03:1,2017-03-01T15:00:00Z,29.4412,-92.0613,1011.05,11111222 
WAVCIS,ioos:station:WAVCIS:CSI03:1,2017-03-01T16:00:00Z,29.4412,-92.0613,1012.36,11111222 
WAVCIS,ioos:station:WAVCIS:CSI03:1,2017-03-01T17:00:00Z,29.4412,-92.0613,1012.48,11111222 
WAVCIS,ioos:station:WAVCIS:CSI03:1,2017-03-01T18:00:00Z,29.4412,-92.0613,1011.91,11111222 
WAVCIS,ioos:station:WAVCIS:CSI03:1,2017-03-01T19:00:00Z,29.4412,-92.0613,1010.88,11111222 
WAVCIS,ioos:station:WAVCIS:CSI03:1,2017-03-01T20:00:00Z,29.4412,-92.0613,1009.77,11111222 
WAVCIS,ioos:station:WAVCIS:CSI03:1,2017-03-01T21:00:00Z,29.4412,-92.0613,1009.45,11111222 
WAVCIS,ioos:station:WAVCIS:CSI03:1,2017-03-01T22:00:00Z,29.4412,-92.0613,1008.96,11111222 
WAVCIS,ioos:station:WAVCIS:CSI03:1,2017-03-01T23:00:00Z,29.4412,-92.0613,1009.01,11111222 
WAVCIS,ioos:station:WAVCIS:CSI03:1,2017-03-02T00:00:00Z,29.4412,-92.0613,1009.69,11111222 
WAVCIS,ioos:station:WAVCIS:CSI03:1,2017-03-02T01:00:00Z,29.4412,-92.0613,1010.28,11111222 
WAVCIS,ioos:station:WAVCIS:CSI03:1,2017-03-02T02:00:00Z,29.4412,-92.0613,1011.24,11111222 
WAVCIS,ioos:station:WAVCIS:CSI03:1,2017-03-02T03:00:00Z,29.4412,-92.0613,1011.85,11111222 
WAVCIS,ioos:station:WAVCIS:CSI03:1,2017-03-02T04:00:00Z,29.4412,-92.0613,1012.8,11111222 
WAVCIS,ioos:station:WAVCIS:CSI03:1,2017-03-02T05:00:00Z,29.4412,-92.0613,1013.19,11111222 
WAVCIS,ioos:station:WAVCIS:CSI03:1,2017-03-02T06:00:00Z,29.4412,-92.0613,1013.4,11111222 
WAVCIS,ioos:station:WAVCIS:CSI03:1,2017-03-02T07:00:00Z,29.4412,-92.0613,1013.81,11111222 
WAVCIS,ioos:station:WAVCIS:CSI03:1,2017-03-02T08:00:00Z,29.4412,-92.0613,1014.16,11111222 
WAVCIS,ioos:station:WAVCIS:CSI03:1,2017-03-02T09:00:00Z,29.4412,-92.0613,1014.48,11111222 
WAVCIS,ioos:station:WAVCIS:CSI03:1,2017-03-02T10:00:00Z,29.4412,-92.0613,1014.72,11111222 
WAVCIS,ioos:station:WAVCIS:CSI03:1,2017-03-02T11:00:00Z,29.4412,-92.0613,1015.62,11111222 
WAVCIS,ioos:station:WAVCIS:CSI03:1,2017-03-02T12:00:00Z,29.4412,-92.0613,1016.51,11111222 
WAVCIS,ioos:station:WAVCIS:CSI03:1,2017-03-02T13:00:00Z,29.4412,-92.0613,1017.68,11111222 
WAVCIS,ioos:station:WAVCIS:CSI03:1,2017-03-02T14:00:00Z,29.4412,-92.0613,1018.64,11111222 
WAVCIS,ioos:station:WAVCIS:CSI03:1,2017-03-02T15:00:00Z,29.4412,-92.0613,1019.87,11111222 
WAVCIS,ioos:station:WAVCIS:CSI03:1,2017-03-02T16:00:00Z,29.4412,-92.0613,1020.46,11111222 
WAVCIS,ioos:station:WAVCIS:CSI03:1,2017-03-02T17:00:00Z,29.4412,-92.0613,1021.05,11111222 
WAVCIS,ioos:station:WAVCIS:CSI03:1,2017-03-02T18:00:00Z,29.4412,-92.0613,1021.11,11111222 
WAVCIS,ioos:station:WAVCIS:CSI03:1,2017-03-02T19:00:00Z,29.4412,-92.0613,1020.48,11111222 
WAVCIS,ioos:station:WAVCIS:CSI03:1,2017-03-02T20:00:00Z,29.4412,-92.0613,1019.9,11111222 
WAVCIS,ioos:station:WAVCIS:CSI03:1,2017-03-02T21:00:00Z,29.4412,-92.0613,1019.64,11111222 
WAVCIS,ioos:station:WAVCIS:CSI03:1,2017-03-02T22:00:00Z,29.4412,-92.0613,1019.65,11111222 
WAVCIS,ioos:station:WAVCIS:CSI03:1,2017-03-02T23:00:00Z,29.4412,-92.0613,1020.02,11111222 
WAVCIS,ioos:station:WAVCIS:CSI03:1,2017-03-03T00:00:00Z,29.4412,-92.0613,1020.67,11111222 
WAVCIS,ioos:station:WAVCIS:CSI03:1,2017-03-03T01:00:00Z,29.4412,-92.0613,1021.21,11111222 
WAVCIS,ioos:station:WAVCIS:CSI03:1,2017-03-03T02:00:00Z,29.4412,-92.0613,1022.01,11111222 
WAVCIS,ioos:station:WAVCIS:CSI03:1,2017-03-03T03:00:00Z,29.4412,-92.0613,1022.86,11111222 
WAVCIS,ioos:station:WAVCIS:CSI03:1,2017-03-03T04:00:00Z,29.4412,-92.0613,1023.21,11111222 
WAVCIS,ioos:station:WAVCIS:CSI03:1,2017-03-03T05:00:00Z,29.4412,-92.0613,1023.68,11111222 
WAVCIS,ioos:station:WAVCIS:CSI03:1,2017-03-03T06:00:00Z,29.4412,-92.0613,1023.95,11111222 
WAVCIS,ioos:station:WAVCIS:CSI03:1,2017-03-03T07:00:00Z,29.4412,-92.0613,1024.25,11111222 
WAVCIS,ioos:station:WAVCIS:CSI03:1,2017-03-03T08:00:00Z,29.4412,-92.0613,1024.54,11111222 
WAVCIS,ioos:station:WAVCIS:CSI03:1,2017-03-03T09:00:00Z,29.4412,-92.0613,1024.36,11111222 
WAVCIS,ioos:station:WAVCIS:CSI03:1,2017-03-03T10:00:00Z,29.4412,-92.0613,1024.49,11111222 
WAVCIS,ioos:station:WAVCIS:CSI03:1,2017-03-03T11:00:00Z,29.4412,-92.0613,1025.01,11111222 
WAVCIS,ioos:station:WAVCIS:CSI03:1,2017-03-03T12:00:00Z,29.4412,-92.0613,1025.49,11111222 
WAVCIS,ioos:station:WAVCIS:CSI03:1,2017-03-03T13:00:00Z,29.4412,-92.0613,1026.23,11111222 
WAVCIS,ioos:station:WAVCIS:CSI03:1,2017-03-03T14:00:00Z,29.4412,-92.0613,1027.06,11111222 
WAVCIS,ioos:station:WAVCIS:CSI03:1,2017-03-03T15:00:00Z,29.4412,-92.0613,1027.44,11111222 
WAVCIS,ioos:station:WAVCIS:CSI03:1,2017-03-03T16:00:00Z,29.4412,-92.0613,1027.69,11111222 
WAVCIS,ioos:station:WAVCIS:CSI03:1,2017-03-03T17:00:00Z,29.4412,-92.0613,1027.76,11111222 
WAVCIS,ioos:station:WAVCIS:CSI03:1,2017-03-03T18:00:00Z,29.4412,-92.0613,1027.11,11111222 
WAVCIS,ioos:station:WAVCIS:CSI03:1,2017-03-03T19:00:00Z,29.4412,-92.0613,1026.38,11111222 
WAVCIS,ioos:station:WAVCIS:CSI03:1,2017-03-03T20:00:00Z,29.4412,-92.0613,1025.6,11111222 
WAVCIS,ioos:station:WAVCIS:CSI03:1,2017-03-03T21:00:00Z,29.4412,-92.0613,1025.07,11111222 
WAVCIS,ioos:station:WAVCIS:CSI03:1,2017-03-03T22:00:00Z,29.4412,-92.0613,1024.9,11111222 
WAVCIS,ioos:station:WAVCIS:CSI03:1,2017-03-03T23:00:00Z,29.4412,-92.0613,1024.83,11111222 
WAVCIS,ioos:station:WAVCIS:CSI03:1,2017-03-04T00:00:00Z,29.4412,-92.0613,1024.82,11111222 
WAVCIS,ioos:station:WAVCIS:CSI03:1,2017-03-04T01:00:00Z,29.4412,-92.0613,1024.91,11111222 
WAVCIS,ioos:station:WAVCIS:CSI03:1,2017-03-04T02:00:00Z,29.4412,-92.0613,1025.5,11111222 
WAVCIS,ioos:station:WAVCIS:CSI03:1,2017-03-04T03:00:00Z,29.4412,-92.0613,1025.72,11111222 
WAVCIS,ioos:station:WAVCIS:CSI03:1,2017-03-04T04:00:00Z,29.4412,-92.0613,1025.6,11111222 
WAVCIS,ioos:station:WAVCIS:CSI03:1,2017-03-04T05:00:00Z,29.4412,-92.0613,1025.39,11111222 
WAVCIS,ioos:station:WAVCIS:CSI03:1,2017-03-04T06:00:00Z,29.4412,-92.0613,1024.98,11111222 
WAVCIS,ioos:station:WAVCIS:CSI03:1,2017-03-04T07:00:00Z,29.4412,-92.0613,1024.84,11111222 
WAVCIS,ioos:station:WAVCIS:CSI03:1,2017-03-04T08:00:00Z,29.4412,-92.0613,1024.52,11111222 
WAVCIS,ioos:station:WAVCIS:CSI03:1,2017-03-04T09:00:00Z,29.4412,-92.0613,1024.05,11111222 
WAVCIS,ioos:station:WAVCIS:CSI03:1,2017-03-04T10:00:00Z,29.4412,-92.0613,1024.04,11111222 
WAVCIS,ioos:station:WAVCIS:CSI03:1,2017-03-04T11:00:00Z,29.4412,-92.0613,1024.25,11111222 
WAVCIS,ioos:station:WAVCIS:CSI03:1,2017-03-04T12:00:00Z,29.4412,-92.0613,1024.45,11111222 
WAVCIS,ioos:station:WAVCIS:CSI03:1,2017-03-04T13:00:00Z,29.4412,-92.0613,1024.27,11111222 
WAVCIS,ioos:station:WAVCIS:CSI03:1,2017-03-04T14:00:00Z,29.4412,-92.0613,1024.71,11111222 
WAVCIS,ioos:station:WAVCIS:CSI03:1,2017-03-04T15:00:00Z,29.4412,-92.0613,1024.89,11111222 
WAVCIS,ioos:station:WAVCIS:CSI03:1,2017-03-04T16:00:00Z,29.4412,-92.0613,1025.36,11111222 
WAVCIS,ioos:station:WAVCIS:CSI03:1,2017-03-04T17:00:00Z,29.4412,-92.0613,1025.19,11111222 
WAVCIS,ioos:station:WAVCIS:CSI03:1,2017-03-04T18:00:00Z,29.4412,-92.0613,1023.92,11111222 
WAVCIS,ioos:station:WAVCIS:CSI03:1,2017-03-04T19:00:00Z,29.4412,-92.0613,1022.47,11111222 
WAVCIS,ioos:station:WAVCIS:CSI03:1,2017-03-04T20:00:00Z,29.4412,-92.0613,1021.79,11111222 
WAVCIS,ioos:station:WAVCIS:CSI03:1,2017-03-04T21:00:00Z,29.4412,-92.0613,1021.06,11111222 
WAVCIS,ioos:station:WAVCIS:CSI03:1,2017-03-04T22:00:00Z,29.4412,-92.0613,1021.33,11111222 
WAVCIS,ioos:station:WAVCIS:CSI03:1,2017-03-04T23:00:00Z,29.4412,-92.0613,1021.48,11111222 
WAVCIS,ioos:station:WAVCIS:CSI03:1,2017-03-05T00:00:00Z,29.4412,-92.0613,1021.89,11111222 
WAVCIS,ioos:station:WAVCIS:CSI03:1,2017-03-05T01:00:00Z,29.4412,-92.0613,1022.03,11111222 
WAVCIS,ioos:station:WAVCIS:CSI03:1,2017-03-05T02:00:00Z,29.4412,-92.0613,1022.14,11111222 
WAVCIS,ioos:station:WAVCIS:CSI03:1,2017-03-05T03:00:00Z,29.4412,-92.0613,1021.99,11111222 
WAVCIS,ioos:station:WAVCIS:CSI03:1,2017-03-05T04:00:00Z,29.4412,-92.0613,1021.59,11111222 
WAVCIS,ioos:station:WAVCIS:CSI03:1,2017-03-05T05:00:00Z,29.4412,-92.0613,1021.34,11111222 
WAVCIS,ioos:station:WAVCIS:CSI03:1,2017-03-05T06:00:00Z,29.4412,-92.0613,1020.54,11111222 
WAVCIS,ioos:station:WAVCIS:CSI03:1,2017-03-05T07:00:00Z,29.4412,-92.0613,1019.23,11111222 
WAVCIS,ioos:station:WAVCIS:CSI03:1,2017-03-05T08:00:00Z,29.4412,-92.0613,1019.25,11111222 
WAVCIS,ioos:station:WAVCIS:CSI03:1,2017-03-05T09:00:00Z,29.4412,-92.0613,1018.61,11111222 
WAVCIS,ioos:station:WAVCIS:CSI03:1,2017-03-05T10:00:00Z,29.4412,-92.0613,1018.22,11111222 
WAVCIS,ioos:station:WAVCIS:CSI03:1,2017-03-05T11:00:00Z,29.4412,-92.0613,1017.53,11111222 
WAVCIS,ioos:station:WAVCIS:CSI03:1,2017-03-05T12:00:00Z,29.4412,-92.0613,1018.3,11111222 
WAVCIS,ioos:station:WAVCIS:CSI03:1,2017-03-05T13:00:00Z,29.4412,-92.0613,1018.94,11111222 
WAVCIS,ioos:station:WAVCIS:CSI03:1,2017-03-05T14:00:00Z,29.4412,-92.0613,1019.57,11111222 
WAVCIS,ioos:station:WAVCIS:CSI03:1,2017-03-05T15:00:00Z,29.4412,-92.0613,1019.62,11111222 
WAVCIS,ioos:station:WAVCIS:CSI03:1,2017-03-05T16:00:00Z,29.4412,-92.0613,1019.83,11111222 
WAVCIS,ioos:station:WAVCIS:CSI03:1,2017-03-05T17:00:00Z,29.4412,-92.0613,1018.94,11111222 
WAVCIS,ioos:station:WAVCIS:CSI03:1,2017-03-05T18:00:00Z,29.4412,-92.0613,1018.6,11111222 
WAVCIS,ioos:station:WAVCIS:CSI03:1,2017-03-05T19:00:00Z,29.4412,-92.0613,1016.64,11111222 
WAVCIS,ioos:station:WAVCIS:CSI03:1,2017-03-05T20:00:00Z,29.4412,-92.0613,1016.22,11111222 
WAVCIS,ioos:station:WAVCIS:CSI03:1,2017-03-05T21:00:00Z,29.4412,-92.0613,1015.87,11111222 
WAVCIS,ioos:station:WAVCIS:CSI03:1,2017-03-05T22:00:00Z,29.4412,-92.0613,1015.4,11111222 
WAVCIS,ioos:station:WAVCIS:CSI03:1,2017-03-05T23:00:00Z,29.4412,-92.0613,1014.66,11111222 
WAVCIS,ioos:station:WAVCIS:CSI03:1,2017-03-06T00:00:00Z,29.4412,-92.0613,1014.77,11111222 
WAVCIS,ioos:station:WAVCIS:CSI03:1,2017-03-06T01:00:00Z,29.4412,-92.0613,1015.19,11111222 
WAVCIS,ioos:station:WAVCIS:CSI03:1,2017-03-06T02:00:00Z,29.4412,-92.0613,1015.19,11111222 
WAVCIS,ioos:station:WAVCIS:CSI03:1,2017-03-06T03:00:00Z,29.4412,-92.0613,1015.13,11111222 
WAVCIS,ioos:station:WAVCIS:CSI03:1,2017-03-06T04:00:00Z,29.4412,-92.0613,1015.02,11111222 
WAVCIS,ioos:station:WAVCIS:CSI03:1,2017-03-06T05:00:00Z,29.4412,-92.0613,1014.87,11111222 
WAVCIS,ioos:station:WAVCIS:CSI03:1,2017-03-06T06:00:00Z,29.4412,-92.0613,1014.79,11111222 
WAVCIS,ioos:station:WAVCIS:CSI03:1,2017-03-06T07:00:00Z,29.4412,-92.0613,1014.79,11111222 
WAVCIS,ioos:station:WAVCIS:CSI03:1,2017-03-06T08:00:00Z,29.4412,-92.0613,1014.23,11111222 
WAVCIS,ioos:station:WAVCIS:CSI03:1,2017-03-06T09:00:00Z,29.4412,-92.0613,1014.01,11111222 
WAVCIS,ioos:station:WAVCIS:CSI03:1,2017-03-06T10:00:00Z,29.4412,-92.0613,1013.9,11111222 
WAVCIS,ioos:station:WAVCIS:CSI03:1,2017-03-06T11:00:00Z,29.4412,-92.0613,1013.53,11111222 
WAVCIS,ioos:station:WAVCIS:CSI03:1,2017-03-06T12:00:00Z,29.4412,-92.0613,1013.52,11111222 
WAVCIS,ioos:station:WAVCIS:CSI03:1,2017-03-06T13:00:00Z,29.4412,-92.0613,1013.76,11111222 
WAVCIS,ioos:station:WAVCIS:CSI03:1,2017-03-06T14:00:00Z,29.4412,-92.0613,1014.09,11111222 
WAVCIS,ioos:station:WAVCIS:CSI03:1,2017-03-06T15:00:00Z,29.4412,-92.0613,1014.42,11111222 
WAVCIS,ioos:station:WAVCIS:CSI03:1,2017-03-06T16:00:00Z,29.4412,-92.0613,1014.52,11111222 
WAVCIS,ioos:station:WAVCIS:CSI03:1,2017-03-06T17:00:00Z,29.4412,-92.0613,1014.12,11111222 
WAVCIS,ioos:station:WAVCIS:CSI03:1,2017-03-06T18:00:00Z,29.4412,-92.0613,1014.38,11111222 
WAVCIS,ioos:station:WAVCIS:CSI03:1,2017-03-06T19:00:00Z,29.4412,-92.0613,1013.42,11111222 
WAVCIS,ioos:station:WAVCIS:CSI03:1,2017-03-06T20:00:00Z,29.4412,-92.0613,1012.74,11111222 
WAVCIS,ioos:station:WAVCIS:CSI03:1,2017-03-06T21:00:00Z,29.4412,-92.0613,1011.92,11111222 
WAVCIS,ioos:station:WAVCIS:CSI03:1,2017-03-06T22:00:00Z,29.4412,-92.0613,1011.61,11111222 
WAVCIS,ioos:station:WAVCIS:CSI03:1,2017-03-06T23:00:00Z,29.4412,-92.0613,1011.41,11111222 
WAVCIS,ioos:station:WAVCIS:CSI03:1,2017-03-07T00:00:00Z,29.4412,-92.0613,1011.38,11111222 
WAVCIS,ioos:station:WAVCIS:CSI03:1,2017-03-07T01:00:00Z,29.4412,-92.0613,1011.54,11111222 
WAVCIS,ioos:station:WAVCIS:CSI03:1,2017-03-07T02:00:00Z,29.4412,-92.0613,1011.77,11111222 
WAVCIS,ioos:station:WAVCIS:CSI03:1,2017-03-07T03:00:00Z,29.4412,-92.0613,1012.15,11111222 
WAVCIS,ioos:station:WAVCIS:CSI03:1,2017-03-07T04:00:00Z,29.4412,-92.0613,1011.98,11111222 
WAVCIS,ioos:station:WAVCIS:CSI03:1,2017-03-07T05:00:00Z,29.4412,-92.0613,1011.87,11111222 
WAVCIS,ioos:station:WAVCIS:CSI03:1,2017-03-07T06:00:00Z,29.4412,-92.0613,1011.65,11111222 
WAVCIS,ioos:station:WAVCIS:CSI03:1,2017-03-07T07:00:00Z,29.4412,-92.0613,1010.6,11111222 
WAVCIS,ioos:station:WAVCIS:CSI03:1,2017-03-07T08:00:00Z,29.4412,-92.0613,1010.62,11111222 
WAVCIS,ioos:station:WAVCIS:CSI03:1,2017-03-07T09:00:00Z,29.4412,-92.0613,1011.28,11111222 
WAVCIS,ioos:station:WAVCIS:CSI03:1,2017-03-07T10:00:00Z,29.4412,-92.0613,1011.86,11111222 
WAVCIS,ioos:station:WAVCIS:CSI03:1,2017-03-07T11:00:00Z,29.4412,-92.0613,1012.5,11111222 
WAVCIS,ioos:station:WAVCIS:CSI03:1,2017-03-07T12:00:00Z,29.4412,-92.0613,1012.19,11111222 
WAVCIS,ioos:station:WAVCIS:CSI03:1,2017-03-07T13:00:00Z,29.4412,-92.0613,1013.06,11111222 
WAVCIS,ioos:station:WAVCIS:CSI03:1,2017-03-07T14:00:00Z,29.4412,-92.0613,1014.65,11111222 
WAVCIS,ioos:station:WAVCIS:CSI03:1,2017-03-07T15:00:00Z,29.4412,-92.0613,1015.56,11111222 
WAVCIS,ioos:station:WAVCIS:CSI03:1,2017-03-07T16:00:00Z,29.4412,-92.0613,1015.93,11111222 
WAVCIS,ioos:station:WAVCIS:CSI03:1,2017-03-07T17:00:00Z,29.4412,-92.0613,1015.95,11111222 
WAVCIS,ioos:station:WAVCIS:CSI03:1,2017-03-07T18:00:00Z,29.4412,-92.0613,1015.1,11111222 
WAVCIS,ioos:station:WAVCIS:CSI03:1,2017-03-07T19:00:00Z,29.4412,-92.0613,1014.44,11111222 
WAVCIS,ioos:station:WAVCIS:CSI03:1,2017-03-07T20:00:00Z,29.4412,-92.0613,1013.85,11111222 
WAVCIS,ioos:station:WAVCIS:CSI03:1,2017-03-07T21:00:00Z,29.4412,-92.0613,1013.66,11111222 
WAVCIS,ioos:station:WAVCIS:CSI03:1,2017-03-07T22:00:00Z,29.4412,-92.0613,1013.75,11111222 
WAVCIS,ioos:station:WAVCIS:CSI03:1,2017-03-07T23:00:00Z,29.4412,-92.0613,1014.05,11111222 
WAVCIS,ioos:station:WAVCIS:CSI03:1,2017-03-08T00:00:00Z,29.4412,-92.0613,1014.77,11111222 
WAVCIS,ioos:station:WAVCIS:CSI03:1,2017-03-08T01:00:00Z,29.4412,-92.0613,1015.53,11111222 
WAVCIS,ioos:station:WAVCIS:CSI03:1,2017-03-08T02:00:00Z,29.4412,-92.0613,1016.21,11111222 
WAVCIS,ioos:station:WAVCIS:CSI03:1,2017-03-08T03:00:00Z,29.4412,-92.0613,1016.37,11111222 
WAVCIS,ioos:station:WAVCIS:CSI03:1,2017-03-08T04:00:00Z,29.4412,-92.0613,1017.85,11111222 
WAVCIS,ioos:station:WAVCIS:CSI03:1,2017-03-08T05:00:00Z,29.4412,-92.0613,1018.05,11111222 
WAVCIS,ioos:station:WAVCIS:CSI03:1,2017-03-08T06:00:00Z,29.4412,-92.0613,1017.95,11111222 
WAVCIS,ioos:station:WAVCIS:CSI03:1,2017-03-08T07:00:00Z,29.4412,-92.0613,1018.4,11111222 
WAVCIS,ioos:station:WAVCIS:CSI03:1,2017-03-08T08:00:00Z,29.4412,-92.0613,1017.63,11111222 
WAVCIS,ioos:station:WAVCIS:CSI03:1,2017-03-08T09:00:00Z,29.4412,-92.0613,1017.65,11111222 
WAVCIS,ioos:station:WAVCIS:CSI03:1,2017-03-08T10:00:00Z,29.4412,-92.0613,1017.98,11111222 
WAVCIS,ioos:station:WAVCIS:CSI03:1,2017-03-08T11:00:00Z,29.4412,-92.0613,1018.22,11111222 
WAVCIS,ioos:station:WAVCIS:CSI03:1,2017-03-08T12:00:00Z,29.4412,-92.0613,1018.4,11111222 
WAVCIS,ioos:station:WAVCIS:CSI03:1,2017-03-08T13:00:00Z,29.4412,-92.0613,1019.26,11111222 
WAVCIS,ioos:station:WAVCIS:CSI03:1,2017-03-08T14:00:00Z,29.4412,-92.0613,1019.74,11111222 
WAVCIS,ioos:station:WAVCIS:CSI03:1,2017-03-08T15:00:00Z,29.4412,-92.0613,1020.13,11111222 
WAVCIS,ioos:station:WAVCIS:CSI03:1,2017-03-08T16:00:00Z,29.4412,-92.0613,1020.44,11111222 
WAVCIS,ioos:station:WAVCIS:CSI03:1,2017-03-08T17:00:00Z,29.4412,-92.0613,1020.69,11111222 
WAVCIS,ioos:station:WAVCIS:CSI03:1,2017-03-08T18:00:00Z,29.4412,-92.0613,1020.32,11111222 
WAVCIS,ioos:station:WAVCIS:CSI03:1,2017-03-08T19:00:00Z,29.4412,-92.0613,1019.43,11111222 
WAVCIS,ioos:station:WAVCIS:CSI03:1,2017-03-08T20:00:00Z,29.4412,-92.0613,1018.62,11111222 
WAVCIS,ioos:station:WAVCIS:CSI03:1,2017-03-08T21:00:00Z,29.4412,-92.0613,1018.23,11111222 
WAVCIS,ioos:station:WAVCIS:CSI03:1,2017-03-08T22:00:00Z,29.4412,-92.0613,1017.59,11111222 
WAVCIS,ioos:station:WAVCIS:CSI03:1,2017-03-08T23:00:00Z,29.4412,-92.0613,1017.82,11111222 
WAVCIS,ioos:station:WAVCIS:CSI03:1,2017-03-09T00:00:00Z,29.4412,-92.0613,1017.94,11111222 
WAVCIS,ioos:station:WAVCIS:CSI03:1,2017-03-09T01:00:00Z,29.4412,-92.0613,1018.05,11111222 
WAVCIS,ioos:station:WAVCIS:CSI03:1,2017-03-09T02:00:00Z,29.4412,-92.0613,1018.05,11111222 
WAVCIS,ioos:station:WAVCIS:CSI03:1,2017-03-09T03:00:00Z,29.4412,-92.0613,1018.34,11111222 
WAVCIS,ioos:station:WAVCIS:CSI03:1,2017-03-09T04:00:00Z,29.4412,-92.0613,1018.93,11111222 
WAVCIS,ioos:station:WAVCIS:CSI03:1,2017-03-09T05:00:00Z,29.4412,-92.0613,1018.21,11111222 
WAVCIS,ioos:station:WAVCIS:CSI03:1,2017-03-09T06:00:00Z,29.4412,-92.0613,1017.75,11111222 
WAVCIS,ioos:station:WAVCIS:CSI03:1,2017-03-09T07:00:00Z,29.4412,-92.0613,1017.57,11111222 
WAVCIS,ioos:station:WAVCIS:CSI03:1,2017-03-09T08:00:00Z,29.4412,-92.0613,1017.52,11111222 
WAVCIS,ioos:station:WAVCIS:CSI03:1,2017-03-09T09:00:00Z,29.4412,-92.0613,1016.99,11111222 
WAVCIS,ioos:station:WAVCIS:CSI03:1,2017-03-09T10:00:00Z,29.4412,-92.0613,1017.16,11111222 
WAVCIS,ioos:station:WAVCIS:CSI03:1,2017-03-09T11:00:00Z,29.4412,-92.0613,1017.06,11111222 
WAVCIS,ioos:station:WAVCIS:CSI03:1,2017-03-09T12:00:00Z,29.4412,-92.0613,1017.57,11111222 
WAVCIS,ioos:station:WAVCIS:CSI03:1,2017-03-09T13:00:00Z,29.4412,-92.0613,1017.71,11111222 
WAVCIS,ioos:station:WAVCIS:CSI03:1,2017-03-09T14:00:00Z,29.4412,-92.0613,1017.89,11111222 
WAVCIS,ioos:station:WAVCIS:CSI03:1,2017-03-09T15:00:00Z,29.4412,-92.0613,1018.0,11111222 
WAVCIS,ioos:station:WAVCIS:CSI03:1,2017-03-09T16:00:00Z,29.4412,-92.0613,1018.23,11111222 
WAVCIS,ioos:station:WAVCIS:CSI03:1,2017-03-09T17:00:00Z,29.4412,-92.0613,1018.24,11111222 
WAVCIS,ioos:station:WAVCIS:CSI03:1,2017-03-09T18:00:00Z,29.4412,-92.0613,1017.8,11111222 
WAVCIS,ioos:station:WAVCIS:CSI03:1,2017-03-09T19:00:00Z,29.4412,-92.0613,1016.67,11111222 
WAVCIS,ioos:station:WAVCIS:CSI03:1,2017-03-09T20:00:00Z,29.4412,-92.0613,1015.74,11111222 
WAVCIS,ioos:station:WAVCIS:CSI03:1,2017-03-09T21:00:00Z,29.4412,-92.0613,1015.09,11111222 
WAVCIS,ioos:station:WAVCIS:CSI03:1,2017-03-09T22:00:00Z,29.4412,-92.0613,1014.82,11111222 
WAVCIS,ioos:station:WAVCIS:CSI03:1,2017-03-09T23:00:00Z,29.4412,-92.0613,1014.76,11111222 
WAVCIS,ioos:station:WAVCIS:CSI03:1,2017-03-10T00:00:00Z,29.4412,-92.0613,1014.65,11111222 
WAVCIS,ioos:station:WAVCIS:CSI03:1,2017-03-10T01:00:00Z,29.4412,-92.0613,1014.92,11111222 
WAVCIS,ioos:station:WAVCIS:CSI03:1,2017-03-10T02:00:00Z,29.4412,-92.0613,1014.89,11111222 
WAVCIS,ioos:station:WAVCIS:CSI03:1,2017-03-10T03:00:00Z,29.4412,-92.0613,1015.68,11111222 
WAVCIS,ioos:station:WAVCIS:CSI03:1,2017-03-10T04:00:00Z,29.4412,-92.0613,1015.87,11111222 
WAVCIS,ioos:station:WAVCIS:CSI03:1,2017-03-10T05:00:00Z,29.4412,-92.0613,1015.44,11111222 
WAVCIS,ioos:station:WAVCIS:CSI03:1,2017-03-10T06:00:00Z,29.4412,-92.0613,1014.72,11111222 
WAVCIS,ioos:station:WAVCIS:CSI03:1,2017-03-10T07:00:00Z,29.4412,-92.0613,1014.25,11111222 
WAVCIS,ioos:station:WAVCIS:CSI03:1,2017-03-10T08:00:00Z,29.4412,-92.0613,1013.26,11111222 
WAVCIS,ioos:station:WAVCIS:CSI03:1,2017-03-10T09:00:00Z,29.4412,-92.0613,1013.18,11111222 
WAVCIS,ioos:station:WAVCIS:CSI03:1,2017-03-10T10:00:00Z,29.4412,-92.0613,1013.26,11111222 
WAVCIS,ioos:station:WAVCIS:CSI03:1,2017-03-10T11:00:00Z,29.4412,-92.0613,1014.05,11111222 
WAVCIS,ioos:station:WAVCIS:CSI03:1,2017-03-10T12:00:00Z,29.4412,-92.0613,1015.37,11111222 
WAVCIS,ioos:station:WAVCIS:CSI03:1,2017-03-10T13:00:00Z,29.4412,-92.0613,1015.79,11111222 
WAVCIS,ioos:station:WAVCIS:CSI03:1,2017-03-10T14:00:00Z,29.4412,-92.0613,1016.14,11111222 
WAVCIS,ioos:station:WAVCIS:CSI03:1,2017-03-10T15:00:00Z,29.4412,-92.0613,1016.11,11111222 
WAVCIS,ioos:station:WAVCIS:CSI03:1,2017-03-10T16:00:00Z,29.4412,-92.0613,1016.56,11111222 
WAVCIS,ioos:station:WAVCIS:CSI03:1,2017-03-10T17:00:00Z,29.4412,-92.0613,1016.9,11111222 
WAVCIS,ioos:station:WAVCIS:CSI03:1,2017-03-10T18:00:00Z,29.4412,-92.0613,1016.38,11111222 
WAVCIS,ioos:station:WAVCIS:CSI03:1,2017-03-10T19:00:00Z,29.4412,-92.0613,1015.28,11111222 
WAVCIS,ioos:station:WAVCIS:CSI03:1,2017-03-10T20:00:00Z,29.4412,-92.0613,1014.3,11111222 
WAVCIS,ioos:station:WAVCIS:CSI03:1,2017-03-10T21:00:00Z,29.4412,-92.0613,1013.87,11111222 
WAVCIS,ioos:station:WAVCIS:CSI03:1,2017-03-10T22:00:00Z,29.4412,-92.0613,1013.7,11111222 
WAVCIS,ioos:station:WAVCIS:CSI03:1,2017-03-10T23:00:00Z,29.4412,-92.0613,1013.56,11111222 
WAVCIS,ioos:station:WAVCIS:CSI03:1,2017-03-11T00:00:00Z,29.4412,-92.0613,1014.24,11111222 
WAVCIS,ioos:station:WAVCIS:CSI03:1,2017-03-11T01:00:00Z,29.4412,-92.0613,1014.12,11111222 
WAVCIS,ioos:station:WAVCIS:CSI03:1,2017-03-11T02:00:00Z,29.4412,-92.0613,1014.45,11111222 
WAVCIS,ioos:station:WAVCIS:CSI03:1,2017-03-11T03:00:00Z,29.4412,-92.0613,1014.81,11111222 
WAVCIS,ioos:station:WAVCIS:CSI03:1,2017-03-11T04:00:00Z,29.4412,-92.0613,1015.04,11111222 
WAVCIS,ioos:station:WAVCIS:CSI03:1,2017-03-11T05:00:00Z,29.4412,-92.0613,1015.11,11111222 
WAVCIS,ioos:station:WAVCIS:CSI03:1,2017-03-11T06:00:00Z,29.4412,-92.0613,1014.7,11111222 
WAVCIS,ioos:station:WAVCIS:CSI03:1,2017-03-11T07:00:00Z,29.4412,-92.0613,1014.72,11111222 
WAVCIS,ioos:station:WAVCIS:CSI03:1,2017-03-11T08:00:00Z,29.4412,-92.0613,1013.61,11111222 
WAVCIS,ioos:station:WAVCIS:CSI03:1,2017-03-11T09:00:00Z,29.4412,-92.0613,1012.88,11111222 
WAVCIS,ioos:station:WAVCIS:CSI03:1,2017-03-11T10:00:00Z,29.4412,-92.0613,1013.27,11111222 
WAVCIS,ioos:station:WAVCIS:CSI03:1,2017-03-11T11:00:00Z,29.4412,-92.0613,1013.7,11111222 
WAVCIS,ioos:station:WAVCIS:CSI03:1,2017-03-11T12:00:00Z,29.4412,-92.0613,1014.02,11111222 
WAVCIS,ioos:station:WAVCIS:CSI03:1,2017-03-11T13:00:00Z,29.4412,-92.0613,1014.44,11111222 
WAVCIS,ioos:station:WAVCIS:CSI03:1,2017-03-11T14:00:00Z,29.4412,-92.0613,1014.71,11111222 
WAVCIS,ioos:station:WAVCIS:CSI03:1,2017-03-11T15:00:00Z,29.4412,-92.0613,1015.42,11111222 
WAVCIS,ioos:station:WAVCIS:CSI03:1,2017-03-11T16:00:00Z,29.4412,-92.0613,1014.79,11111222 
WAVCIS,ioos:station:WAVCIS:CSI03:1,2017-03-11T17:00:00Z,29.4412,-92.0613,1014.74,11111222 
WAVCIS,ioos:station:WAVCIS:CSI03:1,2017-03-11T18:00:00Z,29.4412,-92.0613,1014.41,11111222 
WAVCIS,ioos:station:WAVCIS:CSI03:1,2017-03-11T19:00:00Z,29.4412,-92.0613,1013.42,11111222 
WAVCIS,ioos:station:WAVCIS:CSI03:1,2017-03-11T20:00:00Z,29.4412,-92.0613,1012.7,11111222 
WAVCIS,ioos:station:WAVCIS:CSI03:1,2017-03-11T21:00:00Z,29.4412,-92.0613,1012.02,11111222 
WAVCIS,ioos:station:WAVCIS:CSI03:1,2017-03-11T22:00:00Z,29.4412,-92.0613,1011.51,11111222 